TimeCST,TemperatureF,Dew PointF,Humidity,Sea Level PressureIn,VisibilityMPH,Wind Direction,Wind SpeedMPH,Gust SpeedMPH,PrecipitationIn,Events,Conditions,WindDirDegrees,DateUTC
12:00 AM,70,59,59,29.85,12,East,8.1,,,,Scattered Clouds,90,2014-01-13 06:00:00
12:00 AM,69.8,59.0,68,30.02,6.2,East,8.1,19.6,N/A,,Partly Cloudy,90,2014-01-13 06:00:00
1:00 AM,68.0,59.0,73,29.99,6.2,East,16.1,-,N/A,,Partly Cloudy,100,2014-01-13 07:00:00
2:00 AM,68.0,59.0,73,29.98,6.2,East,8.1,19.6,N/A,,Partly Cloudy,100,2014-01-13 08:00:00
3:00 AM,67,60,70,29.82,12,ENE,15.0,,,,Scattered Clouds,60,2014-01-13 09:00:00
3:00 AM,68.0,59.0,73,29.98,-9999.0,ENE,15.0,-,N/A,,Clear,60,2014-01-13 09:00:00
4:00 AM,68.0,59.0,73,29.98,-9999.0,ENE,10.4,-,N/A,,Clear,60,2014-01-13 10:00:00
5:00 AM,68.0,59.0,73,29.98,6.2,East,11.5,23.0,N/A,,Partly Cloudy,100,2014-01-13 11:00:00
6:00 AM,69,57,58,29.84,12,East,11.5,,,,Scattered Clouds,80,2014-01-13 12:00:00
6:00 AM,69.8,57.2,64,30.00,6.2,East,11.5,23.0,N/A,,Partly Cloudy,80,2014-01-13 12:00:00
7:00 AM,71.6,55.4,57,30.02,6.2,East,12.7,24.2,N/A,,Partly Cloudy,90,2014-01-13 13:00:00
8:00 AM,73.4,55.4,53,30.05,6.2,East,11.5,-,N/A,,Partly Cloudy,90,2014-01-13 14:00:00
9:00 AM,75,55,40,29.88,12,East,13.8,,,,Scattered Clouds,80,2014-01-13 15:00:00
9:00 AM,75.2,55.4,50,30.05,-9999.0,East,13.8,25.3,N/A,,Clear,80,2014-01-13 15:00:00
10:00 AM,78.8,53.6,42,30.05,-9999.0,East,12.7,24.2,N/A,,Clear,90,2014-01-13 16:00:00
11:00 AM,78.8,55.4,44,30.03,-9999.0,East,11.5,25.3,N/A,,Clear,100,2014-01-13 17:00:00
12:00 PM,80,55,32,29.82,12,East,10.4,,,,Scattered Clouds,100,2014-01-13 18:00:00
12:00 PM,80.6,55.4,42,30.01,-9999.0,East,10.4,-,N/A,,Clear,100,2014-01-13 18:00:00
1:00 PM,82.4,53.6,37,29.98,6.2,East,10.4,-,N/A,,Partly Cloudy,90,2014-01-13 19:00:00
2:00 PM,82.4,55.4,39,29.96,6.2,East,11.5,-,N/A,,Partly Cloudy,100,2014-01-13 20:00:00
3:00 PM,82,54,28,29.77,12,East,13.8,,,,Scattered Clouds,90,2014-01-13 21:00:00
3:00 PM,82.4,53.6,37,29.95,6.2,East,13.8,-,N/A,,Partly Cloudy,90,2014-01-13 21:00:00
4:00 PM,80.6,53.6,39,29.95,6.2,East,12.7,-,N/A,,Partly Cloudy,80,2014-01-13 22:00:00
5:00 PM,78.8,53.6,42,29.97,6.2,ESE,8.1,-,N/A,,Partly Cloudy,120,2014-01-13 23:00:00
6:00 PM,72,58,52,29.83,12,ESE,15.7,,,,Scattered Clouds,110,2014-01-14 00:00:00
6:00 PM,71.6,57.2,60,29.99,6.2,ESE,8.1,-,N/A,,Partly Cloudy,110,2014-01-14 00:00:00
7:00 PM,69.8,59.0,68,30.01,6.2,ESE,9.2,-,N/A,,Partly Cloudy,110,2014-01-14 01:00:00
8:00 PM,69.8,59.0,68,30.03,6.2,East,9.2,-,N/A,,Partly Cloudy,90,2014-01-14 02:00:00
9:00 PM,68,59,65,29.88,12,ENE,8.1,,,,Scattered Clouds,70,2014-01-14 03:00:00
9:00 PM,68.0,59.0,73,30.05,6.2,ENE,8.1,-,N/A,,Partly Cloudy,70,2014-01-14 03:00:00
10:00 PM,68.0,57.2,68,30.05,6.2,East,10.4,-,N/A,,Partly Cloudy,100,2014-01-14 04:00:00
11:00 PM,68.0,59.0,73,30.03,6.2,ESE,10.4,-,N/A,,Partly Cloudy,110,2014-01-14 05:00:00